| time (UTC) | temp F | wind direction | speed MPH | gust MPH | rain 1hr in | rain 24hr in | rain mn in | humidity % | barometer mb |
| 20260503044158 | 37 | 352 | 3.0 | 5.0 | 0.00 | 0.00 | 0.00 | 85 | 1016.2 |
| 20260503043655 | 37 | 337 | 4.0 | 5.0 | 0.00 | 0.00 | 0.00 | 85 | 1016.4 |
| 20260503043152 | 37 | 267 | 5.0 | 6.0 | 0.00 | 0.00 | 0.00 | 85 | 1016.4 |
| 20260503042648 | 37 | 275 | 7.0 | 8.0 | 0.00 | 0.00 | 0.00 | 85 | 1016.4 |
| 20260503042145 | 37 | 290 | 6.0 | 7.0 | 0.00 | 0.00 | 0.00 | 85 | 1016.3 |
| 20260503041641 | 37 | 299 | 6.0 | 7.0 | 0.00 | 0.00 | 0.00 | 86 | 1016.4 |
| 20260503041138 | 37 | 275 | 3.0 | 5.0 | 0.00 | 0.00 | 0.00 | 86 | 1016.4 |
| 20260503040636 | 37 | 283 | 2.0 | 2.0 | 0.00 | 0.00 | 0.00 | 86 | 1016.4 |
| 20260503040134 | 37 | 284 | 4.0 | 6.0 | 0.00 | 0.00 | 0.00 | 85 | 1016.4 |
| 20260503035630 | 37 | 264 | 1.0 | 2.0 | 0.00 | 0.00 | 0.00 | 85 | 1016.2 |
| 20260503035128 | 37 | 286 | 4.0 | 5.0 | 0.00 | 0.00 | 0.00 | 85 | 1016.3 |
| 20260503034625 | 37 | 357 | 5.0 | 6.0 | 0.00 | 0.00 | 0.00 | 85 | 1016.4 |
| 20260503034122 | 37 | 268 | 3.0 | 3.0 | 0.00 | 0.00 | 0.00 | 85 | 1016.4 |
| 20260503033619 | 37 | 280 | 3.0 | 3.0 | 0.00 | 0.00 | 0.00 | 85 | 1016.4 |
| 20260503033117 | 37 | 291 | 3.0 | 3.0 | 0.00 | 0.00 | 0.00 | 85 | 1016.5 |
| 20260503032615 | 37 | 299 | 4.0 | 6.0 | 0.00 | 0.00 | 0.00 | 86 | 1016.6 |
| 20260503032113 | 37 | 290 | 3.0 | 3.0 | 0.00 | 0.00 | 0.00 | 86 | 1016.5 |
| 20260503031610 | 37 | 315 | 5.0 | 7.0 | 0.00 | 0.00 | 0.00 | 87 | 1016.5 |
| 20260503031108 | 37 | 288 | 3.0 | 5.0 | 0.00 | 0.00 | 0.00 | 88 | 1016.4 |
| 20260503030604 | 37 | 294 | 3.0 | 3.0 | 0.00 | 0.00 | 0.00 | 87 | 1016.5 |
| 20260503030100 | 38 | 280 | 2.0 | 2.0 | 0.00 | 0.00 | 0.00 | 86 | 1016.6 |
| 20260503025557 | 38 | 276 | 5.0 | 6.0 | 0.00 | 0.00 | 0.00 | 86 | 1016.5 |
| 20260503025055 | 38 | 290 | 3.0 | 3.0 | 0.00 | 0.00 | 0.00 | 86 | 1016.6 |
| 20260503024551 | 38 | 316 | 3.0 | 3.0 | 0.00 | 0.00 | 0.00 | 86 | 1016.5 |
| 20260503024048 | 38 | 290 | 5.0 | 6.0 | 0.00 | 0.00 | 0.00 | 86 | 1016.5 |
| 20260503023545 | 38 | 304 | 4.0 | 5.0 | 0.00 | 0.00 | 0.00 | 86 | 1016.5 |
| 20260503023042 | 38 | 305 | 3.0 | 3.0 | 0.00 | 0.00 | 0.00 | 85 | 1016.8 |
| 20260503022538 | 38 | 285 | 3.0 | 3.0 | 0.00 | 0.00 | 0.00 | 85 | 1016.6 |
| 20260503022033 | 38 | 271 | 2.0 | 2.0 | 0.00 | 0.00 | 0.00 | 85 | 1016.7 |
| 20260503021530 | 38 | 325 | 7.0 | 8.0 | 0.00 | 0.00 | 0.00 | 84 | 1016.7 |
| 20260503021027 | 38 | 297 | 5.0 | 6.0 | 0.00 | 0.00 | 0.00 | 85 | 1016.7 |
| 20260503020524 | 38 | 268 | 2.0 | 2.0 | 0.00 | 0.00 | 0.00 | 84 | 1016.5 |
| 20260503020021 | 38 | 356 | 5.0 | 5.0 | 0.00 | 0.00 | 0.00 | 84 | 1016.7 |
| 20260503015518 | 38 | 315 | 3.0 | 3.0 | 0.00 | 0.00 | 0.00 | 85 | 1016.6 |
| 20260503015015 | 38 | 350 | 4.0 | 5.0 | 0.00 | 0.00 | 0.00 | 84 | 1016.8 |
| 20260503014511 | 38 | 350 | 7.0 | 8.0 | 0.00 | 0.00 | 0.00 | 84 | 1016.7 |
| 20260503014009 | 38 | 302 | 4.0 | 5.0 | 0.00 | 0.00 | 0.00 | 83 | 1016.6 |
| 20260503013506 | 38 | 293 | 7.0 | 8.0 | 0.00 | 0.00 | 0.00 | 83 | 1016.6 |
| 20260503013004 | 38 | 281 | 4.0 | 5.0 | 0.00 | 0.00 | 0.00 | 83 | 1016.3 |
| 20260503012501 | 38 | 277 | 3.0 | 3.0 | 0.00 | 0.00 | 0.00 | 84 | 1016.4 |
| 20260503011956 | 39 | 312 | 3.0 | 3.0 | 0.00 | 0.00 | 0.00 | 84 | 1016.4 |
| 20260503011454 | 39 | 335 | 6.0 | 7.0 | 0.00 | 0.00 | 0.00 | 85 | 1016.3 |
| 20260503010951 | 39 | 273 | 3.0 | 3.0 | 0.00 | 0.00 | 0.00 | 85 | 1016.3 |
| 20260503010447 | 39 | 327 | 3.0 | 3.0 | 0.00 | 0.00 | 0.00 | 84 | 1016.1 |
| 20260503005945 | 39 | 273 | 2.0 | 2.0 | 0.00 | 0.00 | 0.00 | 84 | 1016.4 |
| 20260503005442 | 38 | 284 | 5.0 | 5.0 | 0.00 | 0.00 | 0.00 | 85 | 1016.1 |
| 20260503004939 | 38 | 355 | 5.0 | 6.0 | 0.00 | 0.00 | 0.00 | 85 | 1016.1 |
| 20260503004435 | 39 | 271 | 1.0 | 2.0 | 0.00 | 0.00 | 0.00 | 84 | 1016.1 |
| 20260503003933 | 39 | 284 | 4.0 | 5.0 | 0.00 | 0.00 | 0.00 | 84 | 1016.1 |
| 20260503003430 | 39 | 289 | 5.0 | 5.0 | 0.00 | 0.00 | 0.00 | 83 | 1016.2 |
| 20260503002927 | 39 | 324 | 5.0 | 7.0 | 0.00 | 0.00 | 0.00 | 82 | 1015.7 |
| 20260503002424 | 39 | 296 | 5.0 | 7.0 | 0.00 | 0.00 | 0.00 | 81 | 1015.7 |
| 20260503001920 | 39 | 354 | 5.0 | 7.0 | 0.00 | 0.00 | 0.00 | 81 | 1016.0 |
| 20260503001417 | 40 | 347 | 5.0 | 6.0 | 0.00 | 0.00 | 0.00 | 81 | 1016.1 |
| 20260503000915 | 40 | 333 | 7.0 | 8.0 | 0.00 | 0.00 | 0.00 | 80 | 1015.7 |
| 20260503000411 | 40 | 10 | 5.0 | 6.0 | 0.00 | 0.00 | 0.00 | 80 | 1015.5 |
| 20260502235909 | 40 | 256 | 3.0 | 3.0 | 0.00 | 0.00 | 0.00 | 79 | 1015.6 |
| 20260502235405 | 40 | 354 | 10.0 | 13.0 | 0.00 | 0.00 | 0.00 | 78 | 1015.7 |
| 20260502234903 | 41 | 307 | 8.0 | 9.0 | 0.00 | 0.00 | 0.00 | 78 | 1015.6 |
| 20260502234359 | 41 | 301 | 6.0 | 7.0 | 0.00 | 0.00 | 0.00 | 77 | 1015.6 |
| 20260502233856 | 41 | 328 | 7.0 | 9.0 | 0.00 | 0.00 | 0.00 | 77 | 1015.5 |
| 20260502233352 | 41 | 28 | 8.0 | 9.0 | 0.00 | 0.00 | 0.00 | 76 | 1015.6 |
| 20260502232849 | 41 | 283 | 4.0 | 5.0 | 0.00 | 0.00 | 0.00 | 76 | 1015.6 |
| 20260502232345 | 41 | 321 | 8.0 | 10.0 | 0.00 | 0.00 | 0.00 | 76 | 1015.6 |
| 20260502231842 | 41 | 323 | 6.0 | 7.0 | 0.00 | 0.00 | 0.00 | 75 | 1015.4 |
| 20260502231340 | 42 | 329 | 11.0 | 11.0 | 0.00 | 0.00 | 0.00 | 74 | 1014.9 |
| 20260502230838 | 42 | 317 | 6.0 | 7.0 | 0.00 | 0.00 | 0.00 | 75 | 1015.2 |
| 20260502230336 | 42 | 18 | 5.0 | 6.0 | 0.00 | 0.00 | 0.00 | 76 | 1015.2 |
| 20260502225832 | 42 | 291 | 6.0 | 7.0 | 0.00 | 0.00 | 0.00 | 76 | 1014.9 |
| 20260502225329 | 43 | 317 | 7.0 | 9.0 | 0.00 | 0.00 | 0.00 | 75 | 1015.1 |
| 20260502224826 | 43 | 332 | 7.0 | 10.0 | 0.00 | 0.00 | 0.00 | 75 | 1015.1 |
| 20260502224322 | 43 | 295 | 8.0 | 9.0 | 0.00 | 0.00 | 0.00 | 74 | 1015.0 |
| 20260502223820 | 43 | 279 | 5.0 | 6.0 | 0.00 | 0.00 | 0.00 | 74 | 1015.0 |
| 20260502223318 | 43 | 301 | 9.0 | 11.0 | 0.00 | 0.00 | 0.00 | 73 | 1015.1 |
| 20260502222815 | 43 | 25 | 5.0 | 5.0 | 0.00 | 0.00 | 0.00 | 72 | 1015.1 |
| 20260502222312 | 43 | 277 | 7.0 | 9.0 | 0.00 | 0.00 | 0.00 | 74 | 1015.2 |
| 20260502221808 | 44 | 1 | 11.0 | 11.0 | 0.00 | 0.00 | 0.00 | 72 | 1014.8 |
| 20260502221304 | 44 | 268 | 7.0 | 10.0 | 0.00 | 0.00 | 0.00 | 71 | 1014.8 |
| 20260502220801 | 43 | 346 | 6.0 | 8.0 | 0.00 | 0.00 | 0.00 | 71 | 1015.0 |
| 20260502220257 | 43 | 1 | 11.0 | 14.0 | 0.00 | 0.00 | 0.00 | 72 | 1015.1 |
| 20260502215754 | 44 | 292 | 7.0 | 8.0 | 0.00 | 0.00 | 0.00 | 72 | 1015.0 |
| 20260502215251 | 44 | 327 | 9.0 | 11.0 | 0.00 | 0.00 | 0.00 | 71 | 1015.0 |
| 20260502214748 | 44 | 338 | 7.0 | 9.0 | 0.00 | 0.00 | 0.00 | 72 | 1014.9 |
| 20260502214245 | 44 | 308 | 8.0 | 9.0 | 0.00 | 0.00 | 0.00 | 71 | 1014.7 |
| 20260502213742 | 44 | 346 | 8.0 | 9.0 | 0.00 | 0.00 | 0.00 | 70 | 1014.6 |
| 20260502213239 | 44 | 294 | 7.0 | 8.0 | 0.00 | 0.00 | 0.00 | 71 | 1014.4 |
| 20260502212738 | 44 | 314 | 8.0 | 10.0 | 0.00 | 0.00 | 0.00 | 70 | 1014.6 |
| 20260502212236 | 44 | 282 | 7.0 | 8.0 | 0.00 | 0.00 | 0.00 | 69 | 1014.4 |
| 20260502211732 | 45 | 271 | 5.0 | 7.0 | 0.00 | 0.00 | 0.00 | 66 | 1014.5 |
| 20260502211229 | 45 | 332 | 8.0 | 11.0 | 0.00 | 0.00 | 0.00 | 65 | 1014.4 |
| 20260502210726 | 45 | 290 | 8.0 | 9.0 | 0.00 | 0.00 | 0.00 | 66 | 1014.6 |
| 20260502210223 | 45 | 333 | 7.0 | 11.0 | 0.00 | 0.00 | 0.00 | 66 | 1014.5 |
| 20260502205720 | 45 | 332 | 8.0 | 9.0 | 0.00 | 0.00 | 0.00 | 69 | 1014.6 |
| 20260502205216 | 45 | 321 | 10.0 | 13.0 | 0.00 | 0.00 | 0.00 | 69 | 1014.3 |
| 20260502204714 | 45 | 38 | 5.0 | 6.0 | 0.00 | 0.00 | 0.00 | 69 | 1014.2 |
| 20260502204211 | 46 | 354 | 5.0 | 6.0 | 0.00 | 0.00 | 0.00 | 68 | 1014.5 |
| 20260502203709 | 45 | 8 | 2.0 | 5.0 | 0.00 | 0.00 | 0.00 | 68 | 1014.3 |
| 20260502203207 | 45 | 281 | 4.0 | 5.0 | 0.00 | 0.00 | 0.00 | 68 | 1014.2 |
| 20260502202700 | 45 | 267 | 6.0 | 7.0 | 0.00 | 0.00 | 0.00 | 70 | 1014.4 |
| 20260502202159 | 45 | 286 | 6.0 | 7.0 | 0.00 | 0.00 | 0.00 | 68 | 1014.5 |
| 20260502201656 | 46 | 338 | 5.0 | 7.0 | 0.00 | 0.00 | 0.00 | 67 | 1014.4 |
| 20260502201152 | 45 | 328 | 12.0 | 15.0 | 0.00 | 0.00 | 0.00 | 68 | 1014.4 |
| 20260502200648 | 45 | 342 | 7.0 | 8.0 | 0.00 | 0.00 | 0.00 | 66 | 1014.3 |
| 20260502200145 | 45 | 310 | 9.0 | 11.0 | 0.00 | 0.00 | 0.00 | 66 | 1014.7 |
| 20260502195643 | 45 | 297 | 6.0 | 7.0 | 0.00 | 0.00 | 0.00 | 70 | 1014.5 |
| 20260502195139 | 44 | 23 | 9.0 | 10.0 | 0.00 | 0.00 | 0.00 | 68 | 1014.6 |
| 20260502194636 | 45 | 318 | 7.0 | 8.0 | 0.00 | 0.00 | 0.00 | 68 | 1014.8 |
| 20260502194133 | 45 | 306 | 5.0 | 6.0 | 0.00 | 0.00 | 0.00 | 68 | 1014.7 |
| 20260502193629 | 46 | 345 | 7.0 | 8.0 | 0.00 | 0.00 | 0.00 | 69 | 1014.6 |
| 20260502193126 | 45 | 274 | 3.0 | 5.0 | 0.00 | 0.00 | 0.00 | 70 | 1014.7 |
| 20260502192621 | 46 | 283 | 6.0 | 6.0 | 0.00 | 0.00 | 0.00 | 68 | 1014.7 |
| 20260502192119 | 46 | 1 | 5.0 | 6.0 | 0.00 | 0.00 | 0.00 | 69 | 1014.9 |
| 20260502191616 | 45 | 255 | 6.0 | 7.0 | 0.00 | 0.00 | 0.00 | 72 | 1015.1 |
| 20260502191113 | 45 | 300 | 5.0 | 7.0 | 0.00 | 0.00 | 0.00 | 70 | 1015.1 |
| 20260502190611 | 44 | 294 | 6.0 | 7.0 | 0.00 | 0.00 | 0.00 | 69 | 1015.0 |
| 20260502190109 | 45 | 251 | 7.0 | 8.0 | 0.00 | 0.00 | 0.00 | 70 | 1015.2 |
| 20260502185603 | 45 | 16 | 9.0 | 9.0 | 0.00 | 0.00 | 0.00 | 70 | 1015.1 |
| 20260502185100 | 45 | 317 | 9.0 | 11.0 | 0.00 | 0.00 | 0.00 | 68 | 1015.2 |
| 20260502184556 | 45 | 339 | 7.0 | 8.0 | 0.00 | 0.00 | 0.00 | 67 | 1015.1 |
| 20260502184051 | 45 | 340 | 6.0 | 7.0 | 0.00 | 0.00 | 0.00 | 68 | 1015.1 |
| 20260502183548 | 46 | 276 | 6.0 | 7.0 | 0.00 | 0.00 | 0.00 | 69 | 1015.3 |
| 20260502183044 | 45 | 252 | 3.0 | 3.0 | 0.00 | 0.00 | 0.00 | 68 | 1015.3 |
| 20260502182539 | 44 | 330 | 5.0 | 7.0 | 0.00 | 0.00 | 0.00 | 68 | 1015.2 |
| 20260502182036 | 45 | 5 | 4.0 | 5.0 | 0.00 | 0.00 | 0.00 | 68 | 1015.6 |
| 20260502181534 | 45 | 285 | 5.0 | 5.0 | 0.00 | 0.00 | 0.00 | 71 | 1015.6 |
| 20260502181032 | 44 | 9 | 3.0 | 3.0 | 0.00 | 0.00 | 0.00 | 67 | 1015.6 |
| 20260502180529 | 44 | 259 | 2.0 | 2.0 | 0.00 | 0.00 | 0.00 | 70 | 1015.5 |
| 20260502170448 | 45 | 274 | 3.0 | 5.0 | 0.00 | 0.00 | 0.00 | 65 | 1015.4 |
| 20260502163931 | 44 | 304 | 6.0 | 7.0 | 0.00 | 0.00 | 0.00 | 69 | 1015.9 |
| 20260502163427 | 44 | 263 | 2.0 | 2.0 | 0.00 | 0.00 | 0.00 | 66 | 1015.6 |
| 20260502162925 | 43 | 303 | 3.0 | 3.0 | 0.00 | 0.00 | 0.00 | 66 | 1015.7 |
| 20260502162422 | 43 | 264 | 4.0 | 5.0 | 0.00 | 0.00 | 0.00 | 70 | 1015.9 |
| 20260502161919 | 43 | 338 | 12.0 | 15.0 | 0.00 | 0.00 | 0.00 | 68 | 1015.7 |
| 20260502161415 | 44 | 274 | 3.0 | 5.0 | 0.00 | 0.00 | 0.00 | 67 | 1015.7 |
| 20260502160913 | 43 | 263 | 2.0 | 2.0 | 0.00 | 0.00 | 0.00 | 70 | 1015.5 |
| 20260502160411 | 43 | 273 | 3.0 | 3.0 | 0.00 | 0.00 | 0.00 | 72 | 1015.9 |
| 20260502151850 | 42 | 301 | 7.0 | 9.0 | 0.00 | 0.00 | 0.00 | 75 | 1015.9 |
| 20260502151346 | 42 | 284 | 3.0 | 5.0 | 0.00 | 0.00 | 0.00 | 74 | 1015.6 |
| 20260502150843 | 43 | 332 | 7.0 | 9.0 | 0.00 | 0.00 | 0.00 | 73 | 1015.7 |
| 20260502150340 | 43 | 265 | 2.0 | 2.0 | 0.00 | 0.00 | 0.00 | 73 | 1015.6 |
| 20260502130728 | 39 | 276 | 7.0 | 8.0 | 0.00 | 0.00 | 0.00 | 86 | 1015.9 |
| 20260502130226 | 39 | 353 | 3.0 | 5.0 | 0.00 | 0.00 | 0.00 | 87 | 1015.7 |
| 20260502123712 | 38 | 265 | 5.0 | 7.0 | 0.00 | 0.00 | 0.00 | 87 | 1016.2 |
| 20260502123208 | 38 | 327 | 7.0 | 8.0 | 0.00 | 0.00 | 0.00 | 88 | 1016.3 |
| 20260502122704 | 37 | 285 | 5.0 | 6.0 | 0.00 | 0.00 | 0.00 | 88 | 1016.1 |
| 20260502122201 | 37 | 345 | 6.0 | 7.0 | 0.00 | 0.00 | 0.00 | 89 | 1016.2 |
| 20260502121700 | 38 | 273 | 5.0 | 6.0 | 0.00 | 0.00 | 0.00 | 89 | 1016.4 |
| 20260502121157 | 37 | 350 | 6.0 | 8.0 | 0.00 | 0.00 | 0.00 | 90 | 1016.1 |
| 20260502120653 | 37 | 286 | 5.0 | 5.0 | 0.00 | 0.00 | 0.00 | 90 | 1016.2 |
| 20260502120150 | 37 | 293 | 4.0 | 5.0 | 0.00 | 0.00 | 0.00 | 90 | 1016.4 |
| 20260502115648 | 37 | 264 | 2.0 | 2.0 | 0.00 | 0.00 | 0.00 | 90 | 1016.5 |
| 20260502115143 | 37 | 277 | 2.0 | 2.0 | 0.00 | 0.00 | 0.00 | 91 | 1016.2 |
| 20260502114640 | 37 | 294 | 2.0 | 2.0 | 0.00 | 0.00 | 0.00 | 91 | 1016.5 |
| 20260502114137 | 37 | 268 | 1.0 | 2.0 | 0.00 | 0.00 | 0.00 | 91 | 1016.5 |
| 20260502113635 | 37 | 277 | 2.0 | 2.0 | 0.00 | 0.00 | 0.00 | 92 | 1016.4 |
| 20260502113133 | 37 | 257 | 0.0 | 1.0 | 0.00 | 0.00 | 0.00 | 93 | 1016.5 |
| 20260502112631 | 36 | 266 | 0.0 | 1.0 | 0.00 | 0.00 | 0.00 | 93 | 1016.7 |
| 20260502112128 | 36 | 271 | 2.0 | 2.0 | 0.00 | 0.00 | 0.00 | 94 | 1016.7 |
| 20260502111625 | 36 | 264 | 2.0 | 2.0 | 0.00 | 0.00 | 0.00 | 96 | 1016.7 |
| 20260502111122 | 37 | 265 | 0.0 | 0.0 | 0.00 | 0.00 | 0.00 | 97 | 1016.5 |
| 20260502110620 | 36 | 265 | 1.0 | 2.0 | 0.00 | 0.00 | 0.00 | 97 | 1016.5 |
| 20260502110117 | 36 | 264 | 0.0 | 0.0 | 0.00 | 0.00 | 0.00 | 97 | 1016.2 |
| 20260502105615 | 36 | 264 | 0.0 | 0.0 | 0.00 | 0.00 | 0.00 | 97 | 1016.4 |
| 20260502105112 | 36 | 261 | 1.0 | 1.0 | 0.00 | 0.00 | 0.00 | 97 | 1016.6 |
| 20260502104609 | 36 | 259 | 0.0 | 0.0 | 0.00 | 0.00 | 0.00 | 97 | 1016.2 |
| 20260502104106 | 36 | 259 | 0.0 | 0.0 | 0.00 | 0.00 | 0.00 | 97 | 1016.3 |
| 20260502103604 | 36 | 260 | 0.0 | 0.0 | 0.00 | 0.00 | 0.00 | 97 | 1016.4 |
| 20260502103102 | 36 | 257 | 0.0 | 0.0 | 0.00 | 0.00 | 0.00 | 97 | 1016.1 |
| 20260502102558 | 36 | 257 | 0.0 | 0.0 | 0.00 | 0.00 | 0.00 | 98 | 1016.1 |
| 20260502102055 | 35 | 254 | 0.0 | 0.0 | 0.00 | 0.00 | 0.00 | 98 | 1016.2 |
| 20260502101553 | 35 | 255 | 0.0 | 0.0 | 0.00 | 0.00 | 0.00 | 98 | 1016.3 |
| 20260502101051 | 35 | 255 | 0.0 | 0.0 | 0.00 | 0.00 | 0.00 | 98 | 1016.4 |
| 20260502100549 | 35 | 256 | 0.0 | 0.0 | 0.00 | 0.00 | 0.00 | 98 | 1016.3 |
| 20260502091524 | 35 | 247 | 0.0 | 0.0 | 0.00 | 0.00 | 0.00 | 95 | 1016.2 |
| 20260502091021 | 35 | 257 | 0.0 | 0.0 | 0.00 | 0.00 | 0.00 | 94 | 1016.2 |
| 20260502090518 | 36 | 257 | 0.0 | 0.0 | 0.00 | 0.00 | 0.00 | 94 | 1016.1 |
| 20260502071412 | 38 | 308 | 4.0 | 5.0 | 0.00 | 0.00 | 0.00 | 92 | 1016.4 |
| 20260502070911 | 38 | 286 | 4.0 | 5.0 | 0.00 | 0.00 | 0.00 | 92 | 1016.1 |
| 20260502070408 | 38 | 5 | 5.0 | 6.0 | 0.00 | 0.00 | 0.00 | 91 | 1016.3 |
| 20260502065907 | 38 | 321 | 3.0 | 5.0 | 0.00 | 0.00 | 0.00 | 91 | 1016.2 |
| 20260502065405 | 38 | 2 | 5.0 | 5.0 | 0.00 | 0.00 | 0.00 | 91 | 1016.1 |
| 20260502064902 | 38 | 287 | 4.0 | 6.0 | 0.00 | 0.00 | 0.00 | 91 | 1016.1 |
| 20260502064400 | 38 | 318 | 3.0 | 3.0 | 0.00 | 0.00 | 0.00 | 91 | 1016.3 |
| 20260502063857 | 38 | 269 | 2.0 | 3.0 | 0.00 | 0.00 | 0.00 | 91 | 1015.9 |
| 20260502063355 | 38 | 321 | 5.0 | 7.0 | 0.00 | 0.00 | 0.00 | 90 | 1016.2 |
| 20260502062852 | 38 | 276 | 5.0 | 6.0 | 0.00 | 0.00 | 0.00 | 91 | 1016.1 |
| 20260502062349 | 38 | 332 | 3.0 | 3.0 | 0.00 | 0.00 | 0.00 | 91 | 1016.1 |
| 20260502061848 | 38 | 281 | 2.0 | 2.0 | 0.00 | 0.00 | 0.00 | 90 | 1016.1 |
| 20260502061345 | 38 | 297 | 2.0 | 3.0 | 0.00 | 0.00 | 0.00 | 91 | 1016.1 |
| 20260502060841 | 38 | 19 | 6.0 | 7.0 | 0.00 | 0.00 | 0.00 | 91 | 1016.2 |
| 20260502060336 | 38 | 285 | 3.0 | 3.0 | 0.00 | 0.00 | 0.00 | 90 | 1016.3 |
| 20260502055834 | 38 | 338 | 5.0 | 7.0 | 0.00 | 0.00 | 0.00 | 91 | 1016.1 |
| 20260502055332 | 38 | 357 | 7.0 | 9.0 | 0.00 | 0.00 | 0.00 | 91 | 1016.2 |
| 20260502054831 | 38 | 303 | 7.0 | 8.0 | 0.00 | 0.00 | 0.00 | 92 | 1016.2 |
| 20260502054328 | 39 | 291 | 5.0 | 6.0 | 0.00 | 0.00 | 0.00 | 93 | 1016.1 |
| 20260502053826 | 39 | 305 | 6.0 | 7.0 | 0.00 | 0.00 | 0.00 | 93 | 1016.1 |
| 20260502053323 | 39 | 322 | 5.0 | 6.0 | 0.00 | 0.00 | 0.00 | 94 | 1016.1 |
| 20260502052820 | 39 | 314 | 6.0 | 7.0 | 0.00 | 0.00 | 0.00 | 94 | 1016.1 |
| 20260502052318 | 39 | 341 | 6.0 | 7.0 | 0.00 | 0.00 | 0.00 | 94 | 1016.1 |
| 20260502051816 | 39 | 283 | 5.0 | 6.0 | 0.00 | 0.00 | 0.00 | 93 | 1015.9 |
| 20260502051315 | 40 | 345 | 7.0 | 9.0 | 0.00 | 0.00 | 0.00 | 92 | 1015.9 |
| 20260502050810 | 40 | 333 | 5.0 | 8.0 | 0.00 | 0.00 | 0.00 | 91 | 1015.9 |
| 20260502050307 | 40 | 9 | 5.0 | 8.0 | 0.00 | 0.00 | 0.00 | 92 | 1015.9 |
| 20260502045804 | 40 | 0 | 6.0 | 8.0 | 0.00 | 0.00 | 0.00 | 91 | 1016.0 |
| 20260502045300 | 40 | 259 | 4.0 | 5.0 | 0.00 | 0.00 | 0.00 | 91 | 1015.7 |
| 20260502044758 | 40 | 354 | 11.0 | 13.0 | 0.00 | 0.00 | 0.00 | 90 | 1015.7 |